Powrót do katalogu

STARLINK-31471

AktywnyŁącznośćVLEO
NORAD 59568·PAYLOAD·🇺🇸 United States

Wystrzelony Apr 23, 2024 z Cape Canaveral Space Force Station

Loading…

Następne Przeloty (najbliższe 24 godziny)

TLE

ŚwieżeSource: CelesTrak SupGP

Epoka: Sep 15, 2026, 02:36 UTC

1 59568C 24076E   26258.10881944 -.00004401  00000+0 -15944-3 0  2584
2 59568  43.0036  19.1212 0001471 268.2158  85.8071 15.27570204    15

Śledź STARLINK-31471 w czasie rzeczywistym z AllMySat

Download on the App Store